Time,TemperatureF,DewpointF,PressureIn,WindDirection,WindDirectionDegrees,WindSpeedMPH,WindSpeedGustMPH,Humidity,HourlyPrecipIn,Conditions,Clouds,dailyrainin,SoftwareType,DateUTC
2013-02-28 00:01:00,29.0,22.0,-100.00,North,-999,-999.0,-999.0,73,-99.99,,,-99.99,,2013-02-28 08:01:00,
2013-02-28 00:11:00,29.0,22.0,-100.00,North,-999,-999.0,-999.0,73,-99.99,,,-99.99,,2013-02-28 08:11:00,
2013-02-28 00:21:00,29.0,26.0,-100.00,North,-999,-999.0,-999.0,87,-99.99,,,-99.99,,2013-02-28 08:21:00,
2013-02-28 00:32:00,30.0,25.0,-100.00,North,-999,-999.0,-999.0,82,-99.99,,,-99.99,,2013-02-28 08:32:00,
2013-02-28 00:42:00,30.0,25.0,-100.00,North,-999,-999.0,-999.0,82,-99.99,,,-99.99,,2013-02-28 08:42:00,
2013-02-28 00:53:00,-999.0,-99.9,-100.00,ENE,60,0.0,-999.0,-999,-99.99,,,-99.99,,2013-02-28 08:53:00,
2013-02-28 01:03:00,30.0,23.0,-100.00,North,-999,-999.0,-999.0,75,-99.99,,,-99.99,,2013-02-28 09:03:00,
2013-02-28 01:11:00,30.0,23.0,-100.00,North,-999,-999.0,-999.0,75,-99.99,,,-99.99,,2013-02-28 09:11:00,
2013-02-28 01:22:00,32.0,-99.9,-100.00,North,-999,-999.0,-999.0,-999,-99.99,,,-99.99,,2013-02-28 09:22:00,
2013-02-28 01:31:00,30.0,24.0,-100.00,North,-999,-999.0,-999.0,78,-99.99,,,-99.99,,2013-02-28 09:31:00,
2013-02-28 01:41:00,30.0,24.0,-100.00,North,-999,-999.0,-999.0,78,-99.99,,,-99.99,,2013-02-28 09:41:00,
2013-02-28 01:53:00,30.0,-99.9,-100.00,North,-999,-999.0,-999.0,-999,-99.99,,,-99.99,,2013-02-28 09:53:00,
2013-02-28 02:01:00,30.0,25.0,-100.00,North,-999,-999.0,-999.0,81,-99.99,,,-99.99,,2013-02-28 10:01:00,
2013-02-28 02:11:00,30.0,25.0,-100.00,North,-999,-999.0,-999.0,81,-99.99,,,-99.99,,2013-02-28 10:11:00,
2013-02-28 02:21:00,29.0,26.0,-100.00,North,-999,-999.0,-999.0,86,-99.99,,,-99.99,,2013-02-28 10:21:00,
2013-02-28 02:31:00,29.0,26.0,-100.00,North,-999,-999.0,-999.0,86,-99.99,,,-99.99,,2013-02-28 10:31:00,
2013-02-28 02:42:00,27.0,23.0,-100.00,North,-999,-999.0,-999.0,86,-99.99,,,-99.99,,2013-02-28 10:42:00,
2013-02-28 02:51:00,27.0,23.0,-100.00,North,-999,-999.0,-999.0,86,-99.99,,,-99.99,,2013-02-28 10:51:00,
2013-02-28 03:01:00,28.0,25.0,-100.00,North,-999,-999.0,-999.0,89,-99.99,,,-99.99,,2013-02-28 11:01:00,
2013-02-28 03:11:00,28.0,23.0,-100.00,North,-999,-999.0,-999.0,82,-99.99,,,-99.99,,2013-02-28 11:11:00,
2013-02-28 03:21:00,28.0,23.0,-100.00,North,-999,-999.0,-999.0,82,-99.99,,,-99.99,,2013-02-28 11:21:00,
2013-02-28 03:31:00,-37.0,-39.0,-100.00,North,-999,-999.0,-999.0,89,-99.99,,,-99.99,,2013-02-28 11:31:00,
2013-02-28 03:41:00,-37.0,-39.0,-100.00,North,-999,-999.0,-999.0,89,-99.99,,,-99.99,,2013-02-28 11:41:00,
2013-02-28 03:52:00,-37.0,-39.0,-100.00,North,-999,-999.0,-999.0,89,-99.99,,,-99.99,,2013-02-28 11:52:00,
2013-02-28 04:01:00,27.0,24.0,-100.00,North,-999,-999.0,-999.0,88,-99.99,,,-99.99,,2013-02-28 12:01:00,
2013-02-28 04:11:00,26.0,22.0,-100.00,North,-999,-999.0,-999.0,82,-99.99,,,-99.99,,2013-02-28 12:11:00,
2013-02-28 04:21:00,26.0,22.0,-100.00,North,-999,-999.0,-999.0,82,-99.99,,,-99.99,,2013-02-28 12:21:00,
2013-02-28 04:31:00,26.0,22.0,-100.00,North,-999,-999.0,-999.0,82,-99.99,,,-99.99,,2013-02-28 12:31:00,
2013-02-28 04:42:00,25.0,22.0,-100.00,North,-999,-999.0,-999.0,86,-99.99,,,-99.99,,2013-02-28 12:42:00,
2013-02-28 04:52:00,25.0,22.0,-100.00,North,-999,-999.0,-999.0,86,-99.99,,,-99.99,,2013-02-28 12:52:00,
2013-02-28 05:02:00,27.0,-99.9,-100.00,North,-999,-999.0,-999.0,-999,-99.99,,,-99.99,,2013-02-28 13:02:00,
2013-02-28 05:11:00,27.0,23.0,-100.00,North,-999,-999.0,-999.0,85,-99.99,,,-99.99,,2013-02-28 13:11:00,
2013-02-28 05:21:00,27.0,23.0,-100.00,North,-999,-999.0,-999.0,83,-99.99,,,-99.99,,2013-02-28 13:21:00,
2013-02-28 05:31:00,27.0,23.0,-100.00,North,-999,-999.0,-999.0,83,-99.99,,,-99.99,,2013-02-28 13:31:00,
2013-02-28 05:41:00,26.0,21.0,-100.00,North,-999,-999.0,-999.0,80,-99.99,,,-99.99,,2013-02-28 13:41:00,
2013-02-28 05:52:00,27.0,23.0,-100.00,North,-999,-999.0,-999.0,83,-99.99,,,-99.99,,2013-02-28 13:52:00,
2013-02-28 06:01:00,27.0,23.0,-100.00,North,-999,-999.0,-999.0,83,-99.99,,,-99.99,,2013-02-28 14:01:00,
2013-02-28 06:11:00,26.0,21.0,-100.00,North,-999,-999.0,-999.0,80,-99.99,,,-99.99,,2013-02-28 14:11:00,
2013-02-28 06:21:00,26.0,22.0,-100.00,North,-999,-999.0,-999.0,85,-99.99,,,-99.99,,2013-02-28 14:21:00,
2013-02-28 06:32:00,26.0,22.0,-100.00,North,-999,-999.0,-999.0,85,-99.99,,,-99.99,,2013-02-28 14:32:00,
2013-02-28 06:42:00,26.0,20.0,-100.00,North,-999,-999.0,-999.0,78,-99.99,,,-99.99,,2013-02-28 14:42:00,
2013-02-28 06:52:00,26.0,23.0,-100.00,North,-999,-999.0,-999.0,87,-99.99,,,-99.99,,2013-02-28 14:52:00,
2013-02-28 07:02:00,26.0,23.0,-100.00,North,-999,-999.0,-999.0,87,-99.99,,,-99.99,,2013-02-28 15:02:00,
2013-02-28 07:11:00,25.0,21.0,-100.00,North,-999,-999.0,-999.0,84,-99.99,,,-99.99,,2013-02-28 15:11:00,
2013-02-28 07:21:00,26.0,20.0,-100.00,North,-999,-999.0,-999.0,79,-99.99,,,-99.99,,2013-02-28 15:21:00,
2013-02-28 07:32:00,26.0,20.0,-100.00,North,-999,-999.0,-999.0,79,-99.99,,,-99.99,,2013-02-28 15:32:00,
2013-02-28 07:41:00,26.0,20.0,-100.00,North,-999,-999.0,-999.0,79,-99.99,,,-99.99,,2013-02-28 15:41:00,
2013-02-28 07:52:00,27.0,23.0,-100.00,North,-999,-999.0,-999.0,85,-99.99,,,-99.99,,2013-02-28 15:52:00,
2013-02-28 08:02:00,28.0,-99.9,-100.00,North,-999,-999.0,-999.0,-999,-99.99,,,-99.99,,2013-02-28 16:02:00,
2013-02-28 08:12:00,28.0,-99.9,-100.00,North,-999,-999.0,-999.0,-999,-99.99,,,-99.99,,2013-02-28 16:12:00,
2013-02-28 08:21:00,29.0,26.0,-100.00,North,-999,-999.0,-999.0,88,-99.99,,,-99.99,,2013-02-28 16:21:00,
2013-02-28 08:32:00,30.0,25.0,-100.00,North,-999,-999.0,-999.0,82,-99.99,,,-99.99,,2013-02-28 16:32:00,
2013-02-28 08:42:00,30.0,25.0,-100.00,North,-999,-999.0,-999.0,82,-99.99,,,-99.99,,2013-02-28 16:42:00,
2013-02-28 08:52:00,30.0,25.0,-100.00,North,-999,-999.0,-999.0,82,-99.99,,,-99.99,,2013-02-28 16:52:00,
2013-02-28 09:01:00,33.0,27.0,-100.00,North,-999,-999.0,-999.0,79,-99.99,,,-99.99,,2013-02-28 17:01:00,
2013-02-28 09:12:00,-999.0,-99.9,-100.00,ENE,60,0.0,-999.0,-999,-99.99,,,-99.99,,2013-02-28 17:12:00,
2013-02-28 09:21:00,35.0,24.0,-100.00,North,-999,-999.0,-999.0,62,-99.99,,,-99.99,,2013-02-28 17:21:00,
2013-02-28 09:32:00,37.0,26.0,-100.00,North,-999,-999.0,-999.0,63,-99.99,,,-99.99,,2013-02-28 17:32:00,
2013-02-28 09:41:00,37.0,26.0,-100.00,North,-999,-999.0,-999.0,63,-99.99,,,-99.99,,2013-02-28 17:41:00,
2013-02-28 09:52:00,39.0,24.0,-100.00,North,360,1.0,-999.0,53,-99.99,,,-99.99,,2013-02-28 17:52:00,
2013-02-28 10:01:00,40.0,26.0,-100.00,North,-999,-999.0,-999.0,57,-99.99,,,-99.99,,2013-02-28 18:01:00,
2013-02-28 10:11:00,40.0,26.0,-100.00,North,-999,-999.0,-999.0,57,-99.99,,,-99.99,,2013-02-28 18:11:00,
2013-02-28 10:32:00,42.0,30.0,-100.00,North,-999,-999.0,-999.0,62,-99.99,,,-99.99,,2013-02-28 18:32:00,
2013-02-28 10:42:00,44.0,33.0,-100.00,North,-999,-999.0,-999.0,65,-99.99,,,-99.99,,2013-02-28 18:42:00,
2013-02-28 11:01:00,47.0,35.0,-100.00,North,-999,-999.0,-999.0,63,-99.99,,,-99.99,,2013-02-28 19:01:00,
2013-02-28 11:11:00,47.0,37.0,-100.00,North,-999,-999.0,-999.0,68,-99.99,,,-99.99,,2013-02-28 19:11:00,
2013-02-28 11:22:00,-999.0,-99.9,-100.00,WNW,290,4.0,-999.0,-999,-99.99,,,-99.99,,2013-02-28 19:22:00,
2013-02-28 11:32:00,-999.0,-99.9,-100.00,WNW,290,4.0,-999.0,-999,-99.99,,,-99.99,,2013-02-28 19:32:00,
2013-02-28 11:41:00,47.0,38.0,-100.00,North,-999,-999.0,-999.0,69,-99.99,,,-99.99,,2013-02-28 19:41:00,
2013-02-28 11:52:00,-999.0,-99.9,-100.00,WNW,290,3.0,-999.0,-999,-99.99,,,-99.99,,2013-02-28 19:52:00,
2013-02-28 12:01:00,46.0,36.0,-100.00,North,-999,-999.0,-999.0,68,-99.99,,,-99.99,,2013-02-28 20:01:00,
2013-02-28 12:11:00,48.0,38.0,-100.00,North,-999,-999.0,-999.0,68,-99.99,,,-99.99,,2013-02-28 20:11:00,
2013-02-28 12:22:00,-999.0,-99.9,-100.00,WNW,290,3.0,-999.0,-999,-99.99,,,-99.99,,2013-02-28 20:22:00,
2013-02-28 12:31:00,48.0,35.0,-100.00,North,-999,-999.0,-999.0,59,-99.99,,,-99.99,,2013-02-28 20:31:00,
2013-02-28 12:42:00,49.0,-99.9,-100.00,WNW,290,3.0,-999.0,-999,-99.99,,,-99.99,,2013-02-28 20:42:00,
2013-02-28 12:52:00,49.0,-99.9,-100.00,WNW,290,3.0,-999.0,-999,-99.99,,,-99.99,,2013-02-28 20:52:00,
2013-02-28 13:02:00,49.0,-99.9,-100.00,WNW,290,3.0,-999.0,-999,-99.99,,,-99.99,,2013-02-28 21:02:00,
2013-02-28 13:11:00,-999.0,-99.9,-100.00,WNW,290,2.0,-999.0,-999,-99.99,,,-99.99,,2013-02-28 21:11:00,
2013-02-28 13:22:00,-999.0,-99.9,-100.00,WNW,290,2.0,-999.0,-999,-99.99,,,-99.99,,2013-02-28 21:22:00,
2013-02-28 13:32:00,-999.0,-99.9,-100.00,West,260,2.0,-999.0,-999,-99.99,,,-99.99,,2013-02-28 21:32:00,
2013-02-28 13:41:00,53.0,53.0,-100.00,North,-999,-999.0,-999.0,483,-99.99,,,-99.99,,2013-02-28 21:41:00,
2013-02-28 13:52:00,53.0,38.0,-100.00,North,-999,-999.0,-999.0,56,-99.99,,,-99.99,,2013-02-28 21:52:00,
2013-02-28 14:02:00,-999.0,-99.9,-100.00,West,280,2.0,-999.0,-999,-99.99,,,-99.99,,2013-02-28 22:02:00,
2013-02-28 14:12:00,-999.0,-99.9,-100.00,WNW,290,4.0,-999.0,-999,-99.99,,,-99.99,,2013-02-28 22:12:00,
2013-02-28 14:21:00,53.0,38.0,-100.00,WNW,290,0.0,-999.0,57,-99.99,,,-99.99,,2013-02-28 22:21:00,
2013-02-28 14:32:00,-999.0,-99.9,-100.00,WNW,290,3.0,-999.0,-999,-99.99,,,-99.99,,2013-02-28 22:32:00,
2013-02-28 14:41:00,52.0,38.0,-100.00,North,-999,-999.0,-999.0,57,-99.99,,,-99.99,,2013-02-28 22:41:00,
2013-02-28 14:52:00,51.0,38.0,-100.00,North,-999,-999.0,-999.0,60,-99.99,,,-99.99,,2013-02-28 22:52:00,
2013-02-28 15:02:00,-999.0,-99.9,-100.00,WNW,290,3.0,-999.0,-999,-99.99,,,-99.99,,2013-02-28 23:02:00,
2013-02-28 15:11:00,51.0,41.0,-100.00,North,-999,-999.0,-999.0,67,-99.99,,,-99.99,,2013-02-28 23:11:00,
2013-02-28 15:32:00,-999.0,-99.9,-100.00,WNW,290,0.0,-999.0,-999,-99.99,,,-99.99,,2013-02-28 23:32:00,
2013-02-28 15:41:00,51.0,42.0,-100.00,North,-999,-999.0,-999.0,71,-99.99,,,-99.99,,2013-02-28 23:41:00,
2013-02-28 15:52:00,51.0,43.0,-100.00,NNW,340,0.0,-999.0,75,-99.99,,,-99.99,,2013-02-28 23:52:00,
2013-02-28 16:02:00,-999.0,-99.9,-100.00,WNW,290,3.0,-999.0,-999,-99.99,,,-99.99,,2013-03-01 00:02:00,
2013-02-28 16:11:00,49.0,46.0,-100.00,North,-999,-999.0,-999.0,89,-99.99,,,-99.99,,2013-03-01 00:11:00,
2013-02-28 16:22:00,49.0,46.0,-100.00,North,-999,-999.0,-999.0,89,-99.99,,,-99.99,,2013-03-01 00:22:00,
2013-02-28 16:32:00,46.0,40.0,-100.00,North,-999,-999.0,-999.0,78,-99.99,,,-99.99,,2013-03-01 00:32:00,
2013-02-28 16:52:00,46.0,40.0,-100.00,North,-999,-999.0,-999.0,79,-99.99,,,-99.99,,2013-03-01 00:52:00,
2013-02-28 17:01:00,46.0,38.0,-100.00,North,-999,-999.0,-999.0,73,-99.99,,,-99.99,,2013-03-01 01:01:00,
2013-02-28 17:31:00,45.0,40.0,-100.00,North,-999,-999.0,-999.0,82,-99.99,,,-99.99,,2013-03-01 01:31:00,
2013-02-28 18:01:00,44.0,39.0,-100.00,North,-999,-999.0,-999.0,82,-99.99,,,-99.99,,2013-03-01 02:01:00,
2013-02-28 18:21:00,41.0,36.0,-100.00,North,-999,-999.0,-999.0,83,-99.99,,,-99.99,,2013-03-01 02:21:00,
2013-02-28 18:52:00,40.0,35.0,-100.00,North,-999,-999.0,-999.0,83,-99.99,,,-99.99,,2013-03-01 02:52:00,
2013-02-28 19:01:00,40.0,35.0,-100.00,North,-999,-999.0,-999.0,83,-99.99,,,-99.99,,2013-03-01 03:01:00,
2013-02-28 19:11:00,39.0,35.0,-100.00,North,-999,-999.0,-999.0,85,-99.99,,,-99.99,,2013-03-01 03:11:00,
2013-02-28 19:21:00,39.0,35.0,-100.00,North,-999,-999.0,-999.0,85,-99.99,,,-99.99,,2013-03-01 03:21:00,
2013-02-28 19:32:00,39.0,35.0,-100.00,North,-999,-999.0,-999.0,85,-99.99,,,-99.99,,2013-03-01 03:32:00,
2013-02-28 19:41:00,37.0,34.0,-100.00,WNW,290,0.0,-999.0,87,-99.99,,,-99.99,,2013-03-01 03:41:00,
2013-02-28 19:52:00,37.0,34.0,-100.00,WNW,290,0.0,-999.0,87,-99.99,,,-99.99,,2013-03-01 03:52:00,
2013-02-28 20:01:00,36.0,34.0,-100.00,North,-999,-999.0,-999.0,90,-99.99,,,-99.99,,2013-03-01 04:01:00,
2013-02-28 20:11:00,35.0,33.0,-100.00,North,-999,-999.0,-999.0,93,-99.99,,,-99.99,,2013-03-01 04:11:00,
2013-02-28 20:22:00,-999.0,-99.9,-100.00,WNW,290,1.0,-999.0,-999,-99.99,,,-99.99,,2013-03-01 04:22:00,
2013-02-28 20:32:00,-999.0,-99.9,-100.00,WNW,290,1.0,-999.0,-999,-99.99,,,-99.99,,2013-03-01 04:32:00,
2013-02-28 21:02:00,33.0,33.0,-100.00,North,-999,-999.0,-999.0,99,-99.99,,,-99.99,,2013-03-01 05:02:00,
2013-02-28 21:11:00,33.0,-99.9,-100.00,North,-999,-999.0,-999.0,-999,-99.99,,,-99.99,,2013-03-01 05:11:00,
2013-02-28 21:23:00,33.0,-99.9,-100.00,North,-999,-999.0,-999.0,-999,-99.99,,,-99.99,,2013-03-01 05:23:00,
2013-02-28 21:33:00,33.0,-99.9,-100.00,North,-999,-999.0,-999.0,-999,-99.99,,,-99.99,,2013-03-01 05:33:00,
2013-02-28 21:42:00,33.0,-99.9,-100.00,North,-999,-999.0,-999.0,-999,-99.99,,,-99.99,,2013-03-01 05:42:00,
2013-02-28 21:52:00,32.0,32.0,-100.00,North,-999,-999.0,-999.0,99,-99.99,,,-99.99,,2013-03-01 05:52:00,
2013-02-28 22:02:00,32.0,32.0,-100.00,North,-999,-999.0,-999.0,99,-99.99,,,-99.99,,2013-03-01 06:02:00,
2013-02-28 22:11:00,32.0,32.0,-100.00,North,-999,-999.0,-999.0,99,-99.99,,,-99.99,,2013-03-01 06:11:00,
2013-02-28 22:21:00,32.0,32.0,-100.00,North,-999,-999.0,-999.0,99,-99.99,,,-99.99,,2013-03-01 06:21:00,
2013-02-28 22:32:00,32.0,32.0,-100.00,North,-999,-999.0,-999.0,99,-99.99,,,-99.99,,2013-03-01 06:32:00,
2013-02-28 22:42:00,32.0,32.0,-100.00,North,-999,-999.0,-999.0,99,-99.99,,,-99.99,,2013-03-01 06:42:00,
2013-02-28 22:52:00,31.0,31.0,-100.00,SSW,210,0.0,-999.0,99,-99.99,,,-99.99,,2013-03-01 06:52:00,
2013-02-28 23:01:00,31.0,31.0,-100.00,SSW,210,0.0,-999.0,99,-99.99,,,-99.99,,2013-03-01 07:01:00,
2013-02-28 23:11:00,32.0,32.0,-100.00,North,-999,-999.0,-999.0,99,-99.99,,,-99.99,,2013-03-01 07:11:00,
2013-02-28 23:21:00,31.0,31.0,-100.00,North,-999,-999.0,-999.0,99,-99.99,,,-99.99,,2013-03-01 07:21:00,
2013-02-28 23:33:00,31.0,-99.9,-100.00,North,-999,-999.0,-999.0,-999,-99.99,,,-99.99,,2013-03-01 07:33:00,
2013-02-28 23:43:00,31.0,-99.9,-100.00,North,-999,-999.0,-999.0,-999,-99.99,,,-99.99,,2013-03-01 07:43:00,
2013-02-28 23:51:00,30.0,30.0,-100.00,North,-999,-999.0,-999.0,99,-99.99,,,-99.99,,2013-03-01 07:51:00,